Simultaneous Nadir Overpasses (SNOs) Predictions

Prediction of SNOs near equator between NOAA-19 and NPP Satellite Orbit:

Table of predicted SNOs near equator for the next 14.0 days since TLE Epoch: 2/13/2013
Index Date (NOAA-19) Time (NOAA-19) NOAA-19 Lat,Lon Date (NPP) Time (NPP) NPP Lat,Lon Distance(km) Time Diff (sec)
1 02/23/2013 11:00:01 29.96, 33.83 02/23/2013 10:51:55 29.73, 32.86 96.50 486
2 02/23/2013 11:51:00 -29.98,-158.92 02/23/2013 11:42:37 -29.77,-159.82 89.72 503
3 02/23/2013 12:42:06 29.97, 8.30 02/23/2013 12:33:26 29.79, 7.47 82.86 520
4 02/23/2013 13:33:05 -29.99, 175.55 02/23/2013 13:24:08 -29.83, 174.79 76.08 537
5 02/23/2013 14:24:11 29.99, -17.22 02/23/2013 14:14:57 29.85, -17.92 69.27 554
6 02/23/2013 15:15:09 -29.95, 150.05 02/23/2013 15:05:38 -29.83, 149.41 62.56 571
7 02/23/2013 16:06:1
